AIC4PZ VOBL-VABB

Flight info

Callsign AIC4PZ
Flight time 1h 28m
Altitude 38000
Route VAGPU7B VAGPU Q8 AGELA MOLGO2A
Aircraft A20N/M-SDE2E3FGHIRWXY/LB1

Departure

Time 2026-05-04 15:46
Airport Kempegowda International Airport Bengaluru (VOBL)

Arrival

Time 2026-05-04 17:14
Airport Chhatrapati Shivaji Maharaj International Airport (VABB)
Time Latitude Longitude Altitude Speed Heading
2026-05-04 15:23 13.20165 77.71239 2951 ft 0 kts 183°
2026-05-04 15:34 13.20172 77.71239 2939 ft 0 kts 184°
2026-05-04 15:34 13.20177 77.71239 2940 ft 1 kts 184°
2026-05-04 15:34 13.20185 77.71240 2949 ft 1 kts 184°
2026-05-04 15:35 13.20192 77.71240 2946 ft 2 kts 167°
2026-05-04 15:35 13.20195 77.71239 2945 ft 2 kts 158°
2026-05-04 15:35 13.20210 77.71229 2943 ft 2 kts 113°
2026-05-04 15:36 13.20212 77.71208 2934 ft 2 kts 92°
2026-05-04 15:36 13.20241 77.71201 2951 ft 2 kts 92°
2026-05-04 15:36 13.20255 77.71200 2948 ft 0 kts 92°
2026-05-04 15:37 13.20241 77.71199 2951 ft 2 kts 92°
2026-05-04 15:37 13.20241 77.71195 2952 ft 0 kts 92°
2026-05-04 15:41 13.20240 77.71204 2951 ft 3 kts 93°
2026-05-04 15:41 13.20240 77.71212 2944 ft 5 kts 93°
2026-05-04 15:41 13.20239 77.71234 2951 ft 7 kts 92°
2026-05-04 15:42 13.20275 77.71276 2946 ft 10 kts 15°
2026-05-04 15:42 13.20349 77.71284 2938 ft 11 kts
2026-05-04 15:42 13.20421 77.71277 2943 ft 10 kts 359°
2026-05-04 15:42 13.20484 77.71278 2941 ft 8 kts
2026-05-04 15:43 13.20521 77.71308 2947 ft 8 kts 73°
2026-05-04 15:43 13.20522 77.71381 2943 ft 12 kts 90°
2026-05-04 15:43 13.20521 77.71482 2939 ft 16 kts 91°
2026-05-04 15:43 13.20520 77.71604 2938 ft 19 kts 90°
2026-05-04 15:44 13.20519 77.71750 2936 ft 22 kts 90°
2026-05-04 15:44 13.20518 77.71916 2931 ft 25 kts 90°
2026-05-04 15:44 13.20516 77.72101 2929 ft 27 kts 90°
2026-05-04 15:44 13.20548 77.72278 2929 ft 21 kts 25°
2026-05-04 15:45 13.20679 77.72245 2929 ft 21 kts 301°
2026-05-04 15:45 13.20689 77.72080 2933 ft 38 kts 270°
2026-05-04 15:45 13.20693 77.71565 2944 ft 104 kts 270°
2026-05-04 15:45 13.20701 77.70636 2954 ft 154 kts 270°
2026-05-04 15:46 13.20722 77.69470 3386 ft 163 kts 270°
2026-05-04 15:46 13.20749 77.68282 3760 ft 176 kts 270°
2026-05-04 15:46 13.20767 77.67021 4424 ft 175 kts 271°
2026-05-04 15:46 13.20783 77.65761 5076 ft 182 kts 272°
2026-05-04 15:47 13.20803 77.64393 5513 ft 201 kts 272°
2026-05-04 15:47 13.20869 77.62883 5887 ft 224 kts 283°
2026-05-04 15:47 13.21592 77.61415 6305 ft 243 kts 314°
2026-05-04 15:47 13.23032 77.60397 6736 ft 264 kts 334°
2026-05-04 15:48 13.24668 77.59415 7236 ft 281 kts 320°
2026-05-04 15:48 13.25949 77.57885 8062 ft 285 kts 308°
2026-05-04 15:48 13.28328 77.54574 9760 ft 295 kts 309°
2026-05-04 15:49 13.29858 77.53157 10424 ft 305 kts 330°
2026-05-04 15:49 13.31906 77.52394 10712 ft 327 kts 353°
2026-05-04 15:49 13.34229 77.52515 11026 ft 344 kts 16°
2026-05-04 15:49 13.36423 77.53529 11767 ft 348 kts 32°
2026-05-04 15:50 13.38439 77.54910 12589 ft 350 kts 36°
2026-05-04 15:50 13.40457 77.56346 13373 ft 355 kts 35°
2026-05-04 15:50 13.42530 77.57748 13834 ft 358 kts 33°
2026-05-04 15:50 13.44651 77.59100 13964 ft 359 kts 32°
2026-05-04 15:51 13.46772 77.60403 13999 ft 360 kts 31°
2026-05-04 15:51 13.48932 77.61702 13996 ft 360 kts 29°
2026-05-04 15:51 13.51275 77.62598 13990 ft 361 kts 11°
2026-05-04 15:51 13.53778 77.62665 13990 ft 363 kts 352°
2026-05-04 15:52 13.56185 77.61877 13988 ft 365 kts 335°
2026-05-04 15:52 13.58457 77.60720 13982 ft 365 kts 334°
2026-05-04 15:52 13.60732 77.59549 13979 ft 365 kts 334°
2026-05-04 15:52 13.63002 77.58382 13980 ft 365 kts 334°
2026-05-04 15:53 13.65275 77.57217 13975 ft 365 kts 334°
2026-05-04 15:53 13.67552 77.56053 13974 ft 365 kts 334°
2026-05-04 15:53 13.69827 77.54893 13971 ft 365 kts 334°
2026-05-04 15:53 13.72072 77.53747 13969 ft 365 kts 334°
2026-05-04 15:54 13.74351 77.52585 13967 ft 366 kts 334°
2026-05-04 15:54 13.76632 77.51420 13985 ft 367 kts 334°
2026-05-04 15:54 13.78930 77.50248 14446 ft 371 kts 334°
2026-05-04 15:54 13.81241 77.49069 15239 ft 372 kts 334°
2026-05-04 15:55 13.83572 77.47879 15917 ft 376 kts 333°
2026-05-04 15:55 13.85932 77.46674 16587 ft 381 kts 333°
2026-05-04 15:55 13.88320 77.45454 17265 ft 385 kts 333°
2026-05-04 15:55 13.90696 77.44241 17915 ft 389 kts 333°
2026-05-04 15:56 13.93133 77.42996 18504 ft 393 kts 333°
2026-05-04 15:56 13.95590 77.41741 19081 ft 396 kts 333°
2026-05-04 15:56 13.98068 77.40474 19645 ft 399 kts 333°
2026-05-04 15:56 14.00563 77.39198 20184 ft 403 kts 332°
2026-05-04 15:57 14.03082 77.37909 20727 ft 406 kts 332°
2026-05-04 15:57 14.05620 77.36611 21250 ft 409 kts 332°
2026-05-04 15:57 14.08179 77.35301 21774 ft 413 kts 332°
2026-05-04 15:57 14.10759 77.33980 22268 ft 416 kts 332°
2026-05-04 15:58 14.13365 77.32646 22760 ft 420 kts 332°
2026-05-04 15:58 14.15952 77.31321 23241 ft 423 kts 332°
2026-05-04 15:58 14.18598 77.29965 23669 ft 426 kts 332°
2026-05-04 15:58 14.21258 77.28602 24094 ft 428 kts 332°
2026-05-04 15:59 14.23931 77.27232 24509 ft 430 kts 332°
2026-05-04 15:59 14.26624 77.25850 24910 ft 433 kts 332°
2026-05-04 15:59 14.29324 77.24465 25297 ft 435 kts 332°
2026-05-04 15:59 14.32038 77.23072 25679 ft 437 kts 332°
2026-05-04 16:00 14.34766 77.21672 26059 ft 439 kts 331°
2026-05-04 16:00 14.37510 77.20264 26425 ft 442 kts 332°
2026-05-04 16:00 14.40230 77.18867 26781 ft 444 kts 331°
2026-05-04 16:00 14.43000 77.17444 27127 ft 446 kts 331°
2026-05-04 16:01 14.45786 77.16012 27471 ft 448 kts 331°
2026-05-04 16:01 14.48584 77.14574 27814 ft 450 kts 331°
2026-05-04 16:01 14.51394 77.13129 28143 ft 452 kts 331°
2026-05-04 16:01 14.54217 77.11678 28464 ft 455 kts 331°
2026-05-04 16:02 14.57054 77.10218 28770 ft 457 kts 331°
2026-05-04 16:02 14.59945 77.08837 29074 ft 460 kts 336°
2026-05-04 16:02 14.65972 77.06628 29658 ft 465 kts 338°
2026-05-04 16:03 14.69032 77.05512 29954 ft 467 kts 338°
2026-05-04 16:03 14.72102 77.04391 30211 ft 469 kts 338°
2026-05-04 16:03 14.75185 77.03263 30477 ft 471 kts 339°
2026-05-04 16:03 14.78277 77.02133 30733 ft 473 kts 339°
2026-05-04 16:04 14.81385 77.00997 31003 ft 474 kts 339°
2026-05-04 16:04 14.87607 76.98721 31707 ft 473 kts 339°
2026-05-04 16:04 14.90663 76.97603 32056 ft 472 kts 339°
2026-05-04 16:05 14.93757 76.96470 32413 ft 472 kts 339°
2026-05-04 16:05 14.96849 76.95338 32764 ft 471 kts 339°
2026-05-04 16:05 15.03014 76.93080 33465 ft 469 kts 339°
2026-05-04 16:06 15.06083 76.91955 33809 ft 468 kts 339°
2026-05-04 16:06 15.14231 76.88967 34569 ft 466 kts 339°
2026-05-04 16:07 15.18273 76.87484 34927 ft 465 kts 339°
2026-05-04 16:07 15.27397 76.84134 35745 ft 463 kts 339°
2026-05-04 16:08 15.30432 76.83019 36031 ft 462 kts 339°
2026-05-04 16:08 15.39504 76.79684 36865 ft 460 kts 339°
2026-05-04 16:09 15.45526 76.77469 37420 ft 459 kts 339°
2026-05-04 16:09 15.51491 76.75273 37851 ft 458 kts 339°
2026-05-04 16:10 15.57472 76.73071 37877 ft 455 kts 339°
2026-05-04 16:11 15.68954 76.67776 37876 ft 451 kts 321°
2026-05-04 16:12 15.75306 76.60760 37881 ft 448 kts 307°
2026-05-04 16:12 15.81070 76.53113 37890 ft 449 kts 307°
2026-05-04 16:13 15.88731 76.42934 37884 ft 447 kts 307°
2026-05-04 16:14 15.96373 76.32758 37885 ft 447 kts 307°
2026-05-04 16:16 16.05892 76.20065 37884 ft 446 kts 307°
2026-05-04 16:17 16.15419 76.07338 37884 ft 446 kts 307°
2026-05-04 16:18 16.23008 75.97187 37884 ft 446 kts 307°
2026-05-04 16:19 16.32514 75.84450 37888 ft 445 kts 306°
2026-05-04 16:20 16.41974 75.71752 37889 ft 445 kts 306°
2026-05-04 16:22 16.51409 75.59064 37888 ft 444 kts 306°
2026-05-04 16:23 16.62740 75.43799 37890 ft 444 kts 306°
2026-05-04 16:25 16.74048 75.28525 37899 ft 444 kts 306°
2026-05-04 16:26 16.87213 75.10673 37898 ft 445 kts 306°
2026-05-04 16:28 16.96627 74.97875 37903 ft 446 kts 306°
2026-05-04 16:29 17.09826 74.79872 37908 ft 446 kts 306°
2026-05-04 16:31 17.19216 74.67019 37911 ft 446 kts 306°
2026-05-04 16:32 17.24339 74.60290 37921 ft 447 kts 314°
2026-05-04 16:33 17.32803 74.50765 37919 ft 447 kts 308°
2026-05-04 16:34 17.38560 74.43098 37927 ft 447 kts 307°
2026-05-04 16:35 17.50000 74.27747 37937 ft 446 kts 307°
2026-05-04 16:36 17.55700 74.20092 37944 ft 446 kts 307°
2026-05-04 16:37 17.61417 74.12407 37938 ft 445 kts 307°
2026-05-04 16:38 17.69021 74.02171 37948 ft 444 kts 307°
2026-05-04 16:39 17.78465 73.89440 37811 ft 442 kts 307°
2026-05-04 16:40 17.82247 73.84334 36439 ft 447 kts 307°
2026-05-04 16:40 17.86094 73.79138 34523 ft 459 kts 307°
2026-05-04 16:41 17.90032 73.73815 32679 ft 464 kts 307°
2026-05-04 16:41 17.96016 73.65718 29686 ft 472 kts 307°
2026-05-04 16:42 18.02009 73.57602 27256 ft 461 kts 307°
2026-05-04 16:43 18.05847 73.52397 26270 ft 442 kts 307°
2026-05-04 16:43 18.09494 73.47448 25791 ft 418 kts 307°
2026-05-04 16:43 18.11276 73.45025 25564 ft 421 kts 307°
2026-05-04 16:44 18.18396 73.35345 24655 ft 416 kts 307°
2026-05-04 16:45 18.21928 73.30539 24209 ft 414 kts 307°
2026-05-04 16:46 18.27218 73.23420 23544 ft 410 kts 312°
2026-05-04 16:46 18.31978 73.20115 22003 ft 420 kts 339°
2026-05-04 16:47 18.37743 73.19121 20450 ft 422 kts 354°
2026-05-04 16:47 18.43522 73.18630 19197 ft 412 kts 353°
2026-05-04 16:48 18.51933 73.17678 17076 ft 397 kts 352°
2026-05-04 16:48 18.54656 73.17345 16081 ft 392 kts 352°
2026-05-04 16:49 18.60016 73.16683 14208 ft 383 kts 352°
2026-05-04 16:49 18.65224 73.16043 12074 ft 379 kts 352°
2026-05-04 16:50 18.70633 73.15765 9214 ft 392 kts 357°
2026-05-04 16:50 18.76009 73.15631 7256 ft 377 kts 356°
2026-05-04 16:51 18.80910 73.15508 6733 ft 329 kts 356°
2026-05-04 16:51 18.83128 73.15451 6546 ft 308 kts 356°
2026-05-04 16:51 18.87169 73.15346 5851 ft 284 kts 355°
2026-05-04 16:52 18.90959 73.15920 5432 ft 287 kts 28°
2026-05-04 16:52 18.92410 73.17354 5364 ft 290 kts 55°
2026-05-04 16:53 18.93265 73.21493 5247 ft 294 kts 89°
2026-05-04 16:53 18.94208 73.27691 4953 ft 288 kts 49°
2026-05-04 16:54 18.95740 73.29010 4843 ft 284 kts 22°
2026-05-04 16:55 19.01892 73.26293 4367 ft 263 kts 290°
2026-05-04 16:55 19.03197 73.22688 4113 ft 262 kts 289°
2026-05-04 16:56 19.04525 73.19095 3861 ft 263 kts 290°
2026-05-04 16:56 19.06528 73.13699 3153 ft 268 kts 289°
2026-05-04 16:57 19.07200 73.11885 2928 ft 261 kts 289°
2026-05-04 16:57 19.08457 73.08504 2866 ft 232 kts 289°
2026-05-04 16:58 19.11056 73.04804 2507 ft 223 kts 344°
2026-05-04 16:58 19.12609 73.04823 2262 ft 228 kts 17°
2026-05-04 16:59 19.14580 73.07160 1967 ft 227 kts 83°
2026-05-04 17:00 19.11548 73.12268 1975 ft 212 kts 138°
2026-05-04 17:00 19.08444 73.15580 1975 ft 208 kts 150°
2026-05-04 17:01 19.05736 73.15808 1975 ft 202 kts 208°
2026-05-04 17:01 19.04201 73.13488 1986 ft 207 kts 263°
2026-05-04 17:02 19.05341 73.10759 1972 ft 217 kts 313°
2026-05-04 17:02 19.07456 73.08515 1965 ft 208 kts 311°
2026-05-04 17:03 19.08394 73.07433 1956 ft 192 kts 301°
2026-05-04 17:03 19.08952 73.06162 1954 ft 190 kts 280°
2026-05-04 17:03 19.10045 73.03716 1961 ft 199 kts 326°
2026-05-04 17:04 19.12698 73.03931 1963 ft 209 kts 43°
2026-05-04 17:04 19.13673 73.06641 1958 ft 204 kts 85°
2026-05-04 17:05 19.14067 73.09619 1960 ft 201 kts 85°
2026-05-04 17:05 19.14457 73.12592 1971 ft 202 kts 85°
2026-05-04 17:06 19.14427 73.15486 1981 ft 195 kts 123°
2026-05-04 17:06 19.13499 73.16417 2002 ft 176 kts 160°
2026-05-04 17:07 19.11557 73.15928 1968 ft 129 kts 221°
2026-05-04 17:07 19.11137 73.15453 1999 ft 144 kts 231°
2026-05-04 17:07 19.10421 73.13908 1977 ft 196 kts 252°
2026-05-04 17:07 19.10146 73.12476 1972 ft 201 kts 259°
2026-05-04 17:08 19.09978 73.11000 1971 ft 203 kts 262°
2026-05-04 17:08 19.09698 73.08200 1967 ft 183 kts 261°
2026-05-04 17:08 19.09545 73.06852 1985 ft 187 kts 261°
2026-05-04 17:09 19.09377 73.05482 2264 ft 185 kts 260°
2026-05-04 17:09 19.09224 73.04150 2383 ft 185 kts 262°
2026-05-04 17:09 19.09140 73.02796 2385 ft 183 kts 265°
2026-05-04 17:10 19.09087 73.00473 2252 ft 134 kts 266°
2026-05-04 17:10 19.09047 72.98075 1866 ft 127 kts 266°
2026-05-04 17:11 19.09033 72.97204 1747 ft 127 kts 266°
2026-05-04 17:11 19.09004 72.95328 1425 ft 128 kts 265°
2026-05-04 17:12 19.08989 72.94401 1257 ft 127 kts 265°
2026-05-04 17:12 19.08961 72.92533 949 ft 128 kts 265°
2026-05-04 17:13 19.08917 72.89734 479 ft 132 kts 267°
2026-05-04 17:14 19.08868 72.86974 35 ft 115 kts 269°
2026-05-04 17:14 19.08862 72.86336 31 ft 67 kts 269°
2026-05-04 17:14 19.08933 72.85869 29 ft 0 kts 301°